User: anonymous   Login
Location: Unspecified
(0.0000°N, 0.0000°E)
Time: 16:40:20
(UTC+00:00)
Language:

ESSA 4 - Orbit

View from above orbital plane
View from above orbital plane
View from above satellite
View from above satellite

Ground track
Ground track

The orbit data is extracted from the following two-line orbital elements,

1  2657U 67006A   19015.78685781 -.00000056 +00000-0 -34978-4 0  9993
2  2657 102.0293 064.5347 0073295 206.2517 274.8759 12.69844629408631
Epoch (UTC): 15 January 2019 18:53:04
Eccentricity: 0.0073295
inclination: 102.0293°
perigee height: 1325 km
apogee height: 1439 km
right ascension of ascending node: 64.5347°
argument of perigee: 206.2517°
revolutions per day: 12.69844629
mean anomaly at epoch: 274.8759°
orbit number at epoch: 40863

The dashed part of the orbit path shows where the satellite is in the earth's shadow,  

DLR